Station SNDP5 - 1619910 - Sand Island, Midway Islands Image indicating link to RSS feed of recent meteorological observations for station SNDP5


Conditions at SNDP5 as of
2318 GMT on 06/13/2024:
     

Click on the graph icon in the table below to see a time series plot of the last five days of that observation.

5-day plot - Atmospheric Pressure Atmospheric Pressure (PRES):30.11 in
5-day plot - Air Temperature Air Temperature (ATMP): 83.5 °F
5-day plot - Water Temperature Water Temperature (WTMP): 79.2 °F
NOS Water Level Observation Network Water Level
Previous observations
TIME
(GMT)
5-day plot - Wind Direction
WDIR
 
5-day plot - Wind Speed
WSPD
kts
5-day plot - Wind Gust
GST
kts
5-day plot - Wave Height
WVHT
ft
5-day plot - Dominant Wave Period
DPD
sec
5-day plot - Average Wave Period
APD
sec
5-day plot - Mean Wave Direction
MWD
 
5-day plot - Atmospheric Pressure
PRES
in
5-day plot - Pressure Tendency
PTDY
in
5-day plot - Air Temperature
ATMP
°F
5-day plot - Water Temperature
WTMP
°F
5-day plot - Dew Point
DEWP
°F
5-day plot - Salinity
SAL
psu
5-day plot - Visibility
VIS
nmi
5-day plot - Tide (above MLLW)
TIDE
ft
2024-06-13 2312-------30.11- 82.8 79.2----
2024-06-13 2306-------30.12- 82.6 79.2----
2024-06-13 2300-------30.12-0.01- 79.2----
2024-06-13 2254-------30.12-- 79.0----
2024-06-13 2248-------30.12-------
2024-06-13 2242-------30.12-------
2024-06-13 2236-------30.12-------
2024-06-13 2230-------30.12- 81.0 79.0----
2024-06-13 2224-------30.11- 79.3 79.0----
2024-06-13 2218-------30.11- 80.1 78.8----
2024-06-13 2212-------30.11- 80.1 79.0----
2024-06-13 2206-------30.12- 79.9 78.8----
2024-06-13 2200-------30.12+0.00- 78.8----
2024-06-13 2154-------30.12-- 78.3----
2024-06-13 2148-------30.12- 80.2 78.4----
2024-06-13 2142-------30.12- 80.1 78.4----
2024-06-13 2136-------30.12- 79.9 78.6----
2024-06-13 2130-------30.12- 80.1 78.3----
2024-06-13 2124-------30.12- 80.2 78.4----
2024-06-13 2118-------30.12-- 78.3----
2024-06-13 2112-------30.12-- 78.1----
2024-06-13 2106-------30.12-- 77.9----
2024-06-13 2100-------30.13+0.02 83.5 77.9----
2024-06-13 2054-------30.13- 83.3 78.3----
2024-06-13 2048-------30.13- 82.9 78.4----
2024-06-13 2042-------30.13- 82.6 78.3----
2024-06-13 2036-------30.13- 81.3 78.3----
2024-06-13 2030-------30.13- 79.9 77.5----
2024-06-13 2024-------30.13- 80.8 77.7----
2024-06-13 2018-------30.13-- 77.5----
2024-06-13 2012-------30.13-- 77.7----
2024-06-13 2006-------30.13-- 77.4----
2024-06-13 2000-------30.13+0.02 81.9 77.0----
2024-06-13 1954-------30.13- 81.9 77.7----
2024-06-13 1948-------30.13- 81.7 77.5----
2024-06-13 1942-------30.13- 82.4 77.5----
2024-06-13 1936-------30.13- 81.9 77.2----
2024-06-13 1930-------30.13-- 77.5----
2024-06-13 1924-------30.12-- 77.9----
2024-06-13 1918-------30.12- 80.8 77.9----
2024-06-13 1912-------30.11- 80.8 77.9----
2024-06-13 1906-------30.11- 80.4 77.9----
2024-06-13 1900-------30.12- 81.0 77.9----
2024-06-13 1854-------30.12- 81.1 77.9----
2024-06-13 1848-------30.11-- 77.9----
2024-06-13 1842-------30.11-- 77.9----
2024-06-13 1836-------30.11-- 77.9----
2024-06-13 1830-------30.11-- 77.9----
2024-06-13 1824-------30.11-- 77.9----
2024-06-13 1818-------30.11- 78.8 77.9----
2024-06-13 1812-------30.11- 77.9 77.7----
2024-06-13 1806-------30.11- 77.7 77.5----
2024-06-13 1800-------30.11+0.02- 77.7----
2024-06-13 1754-------30.11-- 77.9----
2024-06-13 1748-------30.11-- 77.9----
2024-06-13 1742-------30.11-- 77.9----
2024-06-13 1736-------30.11-- 77.9----
2024-06-13 1730--------- 74.7 77.9----
2024-06-13 1724--------- 74.5 77.9----
2024-06-13 1718-------30.11- 74.8 77.9----
2024-06-13 1712-------30.11- 74.7 77.9----
2024-06-13 1706-------30.11- 75.6 77.9----
2024-06-13 1700-------30.11+0.01 74.7 77.9----
2024-06-13 1654-------30.11- 74.7 77.9----
2024-06-13 1648-------30.11- 75.0-----
2024-06-13 1642-------30.11- 75.0-----
2024-06-13 1636-------30.10- 74.8-----
2024-06-13 1630-------30.10- 75.0 77.9----
2024-06-13 1624-------30.10- 75.4 77.9----
2024-06-13 1618-------30.10-- 77.9----
2024-06-13 1612-------30.10-- 78.1----
2024-06-13 1606-------30.10-- 78.1----
2024-06-13 1600--------- 74.8 78.1----
2024-06-13 1554--------- 74.8 78.1----
2024-06-13 1548-------30.09-- 78.1----
2024-06-13 1542-------30.09-- 78.1----
2024-06-13 1536-------30.09-- 78.1----
2024-06-13 1530-------30.09-- 78.1----
2024-06-13 1524-------30.09-- 78.1----
2024-06-13 1518-------30.09- 75.4 78.1----
2024-06-13 1512-------30.09- 75.0 78.1----
2024-06-13 1506-------30.09- 75.0 78.1----
2024-06-13 1500-------30.09+0.00 75.4 78.1----
2024-06-13 1454-------30.09- 75.6 78.1----
2024-06-13 1448-------30.09- 75.6 78.1----
2024-06-13 1442-------30.09- 75.4 78.1----
2024-06-13 1436-------30.09- 75.4 78.1----
2024-06-13 1430-------30.09-- 78.1----
2024-06-13 1424-------30.09-- 78.1----
2024-06-13 1418-------30.09- 75.6 78.1----
2024-06-13 1412-------30.09- 75.4 78.1----
2024-06-13 1406-------30.09- 75.4 78.1----
2024-06-13 1400-------30.09-0.02 75.4 78.1----
2024-06-13 1354-------30.09- 75.4 78.1----
2024-06-13 1348-------30.09- 75.4 78.1----
2024-06-13 1342-------30.09- 75.6 78.1----
2024-06-13 1336-------30.09- 75.6 78.1----
2024-06-13 1330-------30.09- 75.4 78.1----
2024-06-13 1324-------30.09- 75.4 78.1----
2024-06-13 1318-------30.09- 75.4 78.1----
2024-06-13 1312-------30.09- 75.4 78.1----
2024-06-13 1306-------30.09- 75.4 78.1----
2024-06-13 1300-------30.09-0.05 75.4 78.1----
2024-06-13 1254-------30.09- 75.2 78.1----
2024-06-13 1248-------30.09- 75.4 78.1----
2024-06-13 1242-------30.09- 75.4 78.1----
2024-06-13 1236-------30.09- 75.6 78.1----
2024-06-13 1230-------30.09- 75.6 78.1----
2024-06-13 1224-------30.09- 75.6 78.1----
2024-06-13 1218-------30.09- 75.4 78.1----
2024-06-13 1212-------30.09- 75.4 78.1----
2024-06-13 1206-------30.10- 75.4 78.1----
2024-06-13 1200-------30.10-0.03 75.6 78.1----
2024-06-13 1154-------30.10- 75.6 78.1----
2024-06-13 1148-------30.10-- 78.1----
2024-06-13 1142-------30.10-- 78.1----
2024-06-13 1136-------30.11-- 78.1----
2024-06-13 1130-------30.11- 75.4 78.1----
2024-06-13 1124-------30.11- 75.4 78.1----
2024-06-13 1118-------30.11- 75.6 77.9----
2024-06-13 1112-------30.11- 75.6 77.9----
2024-06-13 1106-------30.11- 75.6 77.9----
2024-06-13 1100-------30.11-0.01 75.7 77.9----
2024-06-13 1054-------30.11- 75.7 77.9----
2024-06-13 1048-------30.11- 75.7 77.9----
2024-06-13 1042-------30.12- 75.7 77.9----
2024-06-13 1036-------30.12- 75.9 77.9----
2024-06-13 1030-------30.13- 75.7 77.9----
2024-06-13 1024-------30.13- 75.7 77.7----
2024-06-13 1018-------30.13- 75.7 77.4----
2024-06-13 1012-------30.13- 75.7 77.4----
2024-06-13 1006-------30.13- 75.7 77.4----
2024-06-13 1000-------30.14+0.02 75.9 77.4----
2024-06-13 0954-------30.14- 75.7 77.4----
2024-06-13 0948-------30.14- 75.7 77.4----
2024-06-13 0942-------30.14- 75.9 77.4----
2024-06-13 0936-------30.14- 75.7 77.4----
2024-06-13 0930-------30.14- 75.7 77.4----
2024-06-13 0924-------30.14- 75.7 77.4----
2024-06-13 0918-------30.13- 75.7 77.4----
2024-06-13 0912-------30.13- 75.7 77.4----
2024-06-13 0906-------30.13- 75.6 77.4----
2024-06-13 0900-------30.13+0.03 75.9 77.4----
2024-06-13 0854-------30.13- 75.6 77.2----
2024-06-13 0848-------30.13- 75.0 77.2----
2024-06-13 0842-------30.13- 75.2 77.2----
2024-06-13 0836-------30.13- 75.6 77.0----
2024-06-13 0830-------30.13- 75.7 77.0----
2024-06-13 0824-------30.13- 75.7 77.0----
2024-06-13 0818-------30.13- 75.4 77.0----
2024-06-13 0812-------30.13- 75.4 77.2----
2024-06-13 0806-------30.12- 75.6 77.2----
2024-06-13 0800-------30.12+0.02 75.7 77.4----
2024-06-13 0754-------30.12- 75.9 77.4----
2024-06-13 0748-------30.11- 76.1 77.5----
2024-06-13 0742-------30.11- 76.1 77.5----
2024-06-13 0736-------30.12- 76.1 77.5----
2024-06-13 0730-------30.12- 76.3 77.7----
2024-06-13 0724-------30.12- 76.3 77.7----
2024-06-13 0718-------30.12- 76.3 77.7----
2024-06-13 0712-------30.11- 76.3 77.7----
2024-06-13 0706-------30.11- 76.3 77.7----
2024-06-13 0700-------30.11+0.01 76.5 77.7----
2024-06-13 0654-------30.11- 76.5 77.7----
2024-06-13 0648-------30.11-- 77.7----
2024-06-13 0642-------30.11-- 77.7----
2024-06-13 0636-------30.11-- 77.9----
2024-06-13 0630-------30.11- 76.5 77.9----
2024-06-13 0624-------30.11- 76.6 77.9----
2024-06-13 0618-------30.11- 76.8 77.9----
2024-06-13 0612-------30.11- 76.8 77.9----
2024-06-13 0606-------30.11- 77.0 77.5----
2024-06-13 0600-------30.10+0.00------
2024-06-13 0554-------30.10-------
2024-06-13 0548-------30.10- 77.2 77.9----
2024-06-13 0542-------30.10- 77.2 77.9----
2024-06-13 0536-------30.10- 77.2 77.9----
2024-06-13 0530-------30.09- 77.4 77.9----
2024-06-13 0524-------30.09- 77.2 77.9----
2024-06-13 0518-------30.10- 77.4 77.9----
2024-06-13 0512-------30.10- 77.4 77.9----
2024-06-13 0506-------30.10- 77.5 77.9----
2024-06-13 0500-------30.10-0.01 77.5 77.9----
2024-06-13 0454-------30.10- 77.5 77.9----
2024-06-13 0448-------30.10- 77.5 77.7----
2024-06-13 0442-------30.10- 77.7 77.7----
2024-06-13 0436-------30.10- 77.7 77.5----
2024-06-13 0430-------30.10- 78.1 77.4----
2024-06-13 0424-------30.09- 78.1 77.4----
2024-06-13 0418-------30.10- 78.1 77.5----
2024-06-13 0412-------30.10- 78.3 77.5----
2024-06-13 0406-------30.10- 78.6 77.7----
2024-06-13 0400-------30.10- 78.3 77.7----
2024-06-13 0354-------30.10- 78.4 77.9----
2024-06-13 0348-------30.10-- 77.9----
2024-06-13 0342-------30.11-- 77.7----
2024-06-13 0336-------30.11-- 77.7----
2024-06-13 0330-------30.11-- 77.5----
2024-06-13 0324-------30.11-- 77.7----
2024-06-13 0318-------30.11-- 77.7----
2024-06-13 0312-------30.11-- 77.7----
2024-06-13 0306-------30.11-- 77.7----
2024-06-13 0300-------30.11-0.02 78.6 77.7----
2024-06-13 0254-------30.11- 79.0 77.7----
2024-06-13 0248-------30.11- 78.6 77.7----
2024-06-13 0242-------30.11- 79.0 77.7----
2024-06-13 0236-------30.11- 79.2 77.7----
2024-06-13 0230-------30.11- 79.2 77.7----
2024-06-13 0224-------30.11- 79.2 77.7----
2024-06-13 0218-------30.11- 79.7-----
2024-06-13 0212-------30.11- 79.9-----
2024-06-13 0206-------30.11- 79.7-----
2024-06-13 0200-------30.11-0.04 79.3-----
2024-06-13 0154-------30.11- 79.5-----
2024-06-13 0148-------30.11-- 77.5----
2024-06-13 0142-------30.11-- 77.5----
2024-06-13 0136-------30.12-- 77.5----
2024-06-13 0130-------30.12- 78.6 77.4----
2024-06-13 0124-------30.12- 79.0 77.4----
2024-06-13 0118-------30.12-- 77.4----
2024-06-13 0112-------30.12-- 77.4----
2024-06-13 0106-------30.13-- 77.5----
2024-06-13 0100---------- 77.4----
2024-06-13 0054---------- 77.5----
2024-06-13 0048-------30.13-- 77.5----
2024-06-13 0042-------30.13-- 77.4----
2024-06-13 0036-------30.13-- 77.4----
2024-06-13 0030-------30.13-- 77.4----
2024-06-13 0024-------30.13-- 77.5----
2024-06-13 0018-------30.13- 78.1 77.4----
2024-06-13 0012-------30.13- 78.3 77.4----
2024-06-13 0006-------30.13- 78.6 77.4----
2024-06-13 0000-------30.13-0.01- 77.4----
2024-06-12 2354-------30.13-- 77.4----
2024-06-12 2348-------30.14-- 77.4----
2024-06-12 2342-------30.14-- 77.4----
2024-06-12 2336-------30.14-- 77.2----
2024-06-12 2330-------30.14- 78.3 77.2----
2024-06-12 2324-------30.14- 77.9 77.2----
2024-06-12 2318-------30.14- 77.7 77.2----
2024-06-12 2312-------30.14- 77.4 77.2----
2024-06-12 2300-------30.15+0.01- 77.2----
2024-06-12 2254-------30.15-- 77.2----